CW2433 Weather Reports


Display with metric or nautical units.
time (UTC)temp
F
wind
direction
speed
MPH
gust
MPH
rain 1hr
in
rain 24hr
in
rain mn
in
humidity
%
barometer
mb
20210803085010 62 134 0.0 0.0 0.00 0.00 0.00 91 1019.1
20210803084510 62 134 0.0 0.0 0.00 0.00 0.00 90 1019.0
20210803084010 62 133 0.0 0.0 0.00 0.00 0.00 90 1019.1
20210803083509 62 134 0.0 0.0 0.00 0.00 0.00 90 1019.0
20210803083011 62 134 0.0 0.0 0.00 0.00 0.00 90 1019.0
20210803082508 62 134 0.0 0.0 0.00 0.00 0.00 91 1019.0
20210803082010 62 133 0.0 0.0 0.00 0.00 0.00 91 1019.0
20210803081510 62 134 0.0 0.0 0.00 0.00 0.00 90 1019.1
20210803081010 62 134 0.0 0.0 0.00 0.00 0.00 90 1019.2
20210803080510 62 133 0.0 0.0 0.00 0.00 0.00 90 1019.2
20210803080010 63 134 0.0 0.0 0.00 0.00 0.00 90 1019.1
20210803075509 63 134 0.0 0.0 0.00 0.00 0.00 89 1019.0
20210803075010 63 134 0.0 0.0 0.00 0.00 0.00 89 1019.0
20210803074510 63 134 0.0 0.0 0.00 0.00 0.00 89 1019.0
20210803074010 63 134 0.0 0.0 0.00 0.00 0.00 89 1019.1
20210803073509 63 134 0.0 0.0 0.00 0.00 0.00 90 1019.1
20210803073011 63 134 0.0 0.0 0.00 0.00 0.00 90 1019.1
20210803072509 63 134 0.0 0.0 0.00 0.00 0.00 90 1019.1
20210803072010 63 133 0.0 0.0 0.00 0.00 0.00 90 1019.2
20210803071510 63 134 0.0 0.0 0.00 0.00 0.00 88 1019.2
20210803071010 63 134 0.0 0.0 0.00 0.00 0.00 88 1019.2
20210803070509 64 134 0.0 0.0 0.00 0.00 0.00 88 1019.2
20210803070011 64 133 0.0 0.0 0.00 0.00 0.00 88 1019.3
20210803065509 64 134 0.0 0.0 0.00 0.00 0.00 87 1019.3
20210803065009 64 133 0.0 0.0 0.00 0.00 0.00 88 1019.3
20210803064509 64 134 0.0 0.0 0.00 0.00 0.00 88 1019.3
20210803064009 64 134 0.0 0.0 0.00 0.00 0.00 88 1019.2
20210803063508 64 134 0.0 0.0 0.00 0.00 0.00 88 1019.2
20210803063009 64 133 0.0 0.0 0.00 0.00 0.00 88 1019.2
20210803062508 64 134 0.0 0.0 0.00 0.00 0.00 88 1019.2
20210803062009 64 134 0.0 0.0 0.00 0.00 0.00 88 1019.2
20210803061509 65 134 0.0 0.0 0.00 0.00 0.00 88 1019.2
20210803061009 65 133 0.0 0.0 0.00 0.00 0.00 86 1019.2
20210803060508 65 133 0.0 0.0 0.00 0.00 0.00 86 1019.2
20210803060009 65 134 0.0 0.0 0.00 0.00 0.00 86 1019.2
20210803055508 65 133 0.0 0.0 0.00 0.00 0.00 87 1019.1
20210803055009 65 134 0.0 0.0 0.00 0.00 0.00 86 1019.1
20210803054509 65 134 0.0 0.0 0.00 0.00 0.00 86 1019.0
20210803054009 65 134 0.0 0.0 0.00 0.00 0.00 86 1019.0
20210803053508 65 133 0.0 0.0 0.00 0.00 0.00 85 1019.1
20210803053010 65 133 0.0 0.0 0.00 0.00 0.00 85 1019.1
20210803052509 65 134 0.0 0.0 0.00 0.00 0.00 85 1019.2
20210803052009 65 134 0.0 0.0 0.00 0.00 0.00 84 1019.1
20210803051510 66 133 0.0 0.0 0.00 0.00 0.00 83 1019.1
20210803051010 66 133 0.0 0.0 0.00 0.00 0.00 82 1018.9
20210803050509 66 134 0.0 0.0 0.00 0.00 0.00 83 1018.9
20210803050010 66 134 0.0 0.0 0.00 0.00 0.00 83 1018.9
20210803045511 66 134 0.0 0.0 0.00 0.00 0.00 82 1018.9
20210803045009 66 133 0.0 0.0 0.00 0.00 0.00 81 1018.9
20210803044509 66 134 0.0 0.0 0.00 0.00 0.00 82 1018.9
20210803044009 67 134 0.0 0.0 0.00 0.00 0.00 81 1019.0
20210803043509 67 134 0.0 0.0 0.00 0.00 0.00 81 1019.0
20210803043010 67 134 0.0 0.0 0.00 0.00 0.00 80 1019.0
20210803042508 67 134 0.0 0.0 0.00 0.00 0.00 80 1019.1
20210803042009 67 133 0.0 0.0 0.00 0.00 0.00 78 1019.0
20210803041512 67 134 0.0 0.0 0.00 0.00 0.00 78 1019.0
20210803041009 67 134 0.0 0.0 0.00 0.00 0.00 77 1018.9
20210803040508 68 134 0.0 0.0 0.00 0.00 0.00 78 1018.9
20210803040009 68 133 0.0 0.0 0.00 0.00 0.00 77 1019.0
20210803035508 68 134 0.0 0.0 0.00 0.00 0.00 78 1019.0
20210803035009 68 133 0.0 0.0 0.00 0.00 0.00 77 1019.0
20210803034509 69 134 0.0 0.0 0.00 0.00 0.00 78 1018.9
20210803034009 69 133 0.0 0.0 0.00 0.00 0.00 75 1018.9
20210803033508 69 134 0.0 0.0 0.00 0.00 0.00 76 1018.8
20210803033011 69 134 0.0 0.0 0.00 0.00 0.00 75 1018.8
20210803032508 69 133 0.0 0.0 0.00 0.00 0.00 74 1018.8
20210803032009 69 134 0.0 0.0 0.00 0.00 0.00 75 1018.7
20210803031510 70 134 0.0 0.0 0.00 0.00 0.00 73 1018.7
20210803031009 70 134 0.0 0.0 0.00 0.00 0.00 72 1018.6
20210803030508 70 133 0.0 0.0 0.00 0.00 0.00 72 1018.6
20210803030010 70 134 0.0 1.0 0.00 0.00 0.00 72 1018.8
20210803025508 70 134 0.0 1.0 0.00 0.00 0.00 68 1018.8
20210803025009 70 134 0.0 1.0 0.00 0.00 0.00 65 1018.8
20210803024510 71 134 0.0 0.0 0.00 0.00 0.00 65 1018.7
20210803024009 71 133 0.0 0.0 0.00 0.00 0.00 64 1018.7
20210803023508 71 134 0.0 0.0 0.00 0.00 0.00 64 1018.7
20210803023011 71 133 0.0 0.0 0.00 0.00 0.00 62 1018.6
20210803022508 72 134 0.0 0.0 0.00 0.00 0.00 62 1018.6
20210803022010 72 134 0.0 0.0 0.00 0.00 0.00 61 1018.6
20210803021511 72 134 0.0 0.0 0.00 0.00 0.00 61 1018.5
20210803021009 73 134 0.0 0.0 0.00 0.00 0.00 60 1018.4
20210803020509 73 134 0.0 0.0 0.00 0.00 0.00 59 1018.4
20210803020010 73 134 0.0 0.0 0.00 0.00 0.00 59 1018.5
20210803015509 74 134 0.0 1.0 0.00 0.00 0.00 59 1018.4
20210803015010 74 134 0.0 1.0 0.00 0.00 0.00 58 1018.4
20210803014514 74 134 0.0 0.0 0.00 0.00 0.00 57 1018.4
20210803014009 75 134 0.0 0.0 0.00 0.00 0.00 56 1018.4
20210803013509 75 134 0.0 1.0 0.00 0.00 0.00 56 1018.4
20210803013011 75 133 0.0 2.0 0.00 0.00 0.00 57 1018.3
20210803012510 76 134 0.0 2.0 0.00 0.00 0.00 56 1018.3
20210803012010 76 106 0.0 2.0 0.00 0.00 0.00 55 1018.3
20210803011510 76 91 0.0 3.0 0.00 0.00 0.00 55 1018.3
20210803011010 76 137 0.0 3.0 0.00 0.00 0.00 55 1018.2
20210803010510 77 91 0.0 3.0 0.00 0.00 0.00 54 1018.2
20210803010010 77 167 0.0 3.0 0.00 0.00 0.00 54 1018.4
20210803005510 77 153 1.0 3.0 0.00 0.00 0.00 54 1018.4
20210803005010 77 138 0.0 3.0 0.00 0.00 0.00 54 1018.4
20210803004511 77 140 1.0 3.0 0.00 0.00 0.00 54 1018.4
20210803004010 77 150 0.0 5.0 0.00 0.00 0.00 53 1018.4
20210803003510 77 69 2.0 5.0 0.00 0.00 0.00 53 1018.4
20210803003011 77 92 1.0 3.0 0.00 0.00 0.00 53 1018.4
20210803002509 77 82 1.0 3.0 0.00 0.00 0.00 53 1018.4
20210803002010 77 84 1.0 6.0 0.00 0.00 0.00 52 1018.4
20210803001511 77 117 1.0 6.0 0.00 0.00 0.00 52 1018.4
20210803001011 77 49 1.0 6.0 0.00 0.00 0.00 53 1018.5
20210803000508 77 58 1.0 6.0 0.00 0.00 0.00 54 1018.5
20210803000010 77 125 2.0 5.0 0.00 0.00 0.00 54 1018.6
20210802235509 77 34 1.0 5.0 0.00 0.00 0.00 53 1018.6
20210802235009 78 53 3.0 6.0 0.00 0.00 0.00 51 1018.6
20210802234509 78 68 3.0 6.0 0.00 0.00 0.00 49 1018.6
20210802234009 78 79 2.0 6.0 0.00 0.00 0.00 50 1018.7
20210802233509 78 54 2.0 7.0 0.00 0.00 0.00 51 1018.7
20210802233010 78 80 2.0 7.0 0.00 0.00 0.00 50 1018.7
20210802232508 78 39 1.0 7.0 0.00 0.00 0.00 52 1018.7
20210802232010 78 40 3.0 7.0 0.00 0.00 0.00 50 1018.8
20210802231510 79 86 2.0 5.0 0.00 0.00 0.00 49 1018.7
20210802231009 78 76 1.0 5.0 0.00 0.00 0.00 48 1018.8
20210802230509 78 74 1.0 5.0 0.00 0.00 0.00 50 1018.7
20210802230010 78 134 1.0 5.0 0.00 0.00 0.00 50 1018.7
20210802225508 78 137 2.0 5.0 0.00 0.00 0.00 50 1018.8
20210802225009 79 45 2.0 6.0 0.00 0.00 0.00 48 1018.8
20210802224512 78 42 2.0 6.0 0.00 0.00 0.00 51 1018.9
20210802224009 79 115 1.0 8.0 0.00 0.00 0.00 50 1018.9
20210802223509 79 45 3.0 8.0 0.00 0.00 0.00 50 1018.9
20210802223011 79 54 3.0 6.0 0.00 0.00 0.00 49 1018.9
20210802222508 78 182 1.0 6.0 0.00 0.00 0.00 53 1018.9
20210802222009 78 79 2.0 6.0 0.00 0.00 0.00 50 1018.9
20210802221520 79 73 1.0 3.0 0.00 0.00 0.00 46 1018.9
20210802221009 79 136 1.0 3.0 0.00 0.00 0.00 49 1018.9
20210802220508 79 39 3.0 6.0 0.00 0.00 0.00 49 1018.9
20210802220013 79 45 2.0 6.0 0.00 0.00 0.00 48 1018.8
20210802215509 78 39 3.0 6.0 0.00 0.00 0.00 51 1018.9
20210802215009 77 157 2.0 6.0 0.00 0.00 0.00 51 1018.9
20210802214510 77 167 1.0 7.0 0.00 0.00 0.00 51 1018.9
20210802214009 78 145 3.0 7.0 0.00 0.00 0.00 47 1018.8
20210802213508 79 164 4.0 7.0 0.00 0.00 0.00 48 1018.9
20210802213011 79 132 2.0 3.0 0.00 0.00 0.00 50 1018.9
20210802212509 79 55 1.0 5.0 0.00 0.00 0.00 52 1018.9
20210802212010 79 81 2.0 5.0 0.00 0.00 0.00 47 1019.1
20210802211511 79 76 2.0 8.0 0.00 0.00 0.00 49 1019.1
20210802211010 80 214 1.0 8.0 0.00 0.00 0.00 47 1019.3
20210802210508 79 353 2.0 5.0 0.00 0.00 0.00 46 1019.2
20210802210010 78 116 1.0 7.0 0.00 0.00 0.00 48 1019.3
20210802205509 80 140 2.0 7.0 0.00 0.00 0.00 47 1019.2
20210802205009 79 51 2.0 5.0 0.00 0.00 0.00 47 1019.3
20210802204511 79 90 1.0 6.0 0.00 0.00 0.00 47 1019.3
20210802204010 80 33 2.0 7.0 0.00 0.00 0.00 48 1019.3
20210802203509 80 10 3.0 7.0 0.00 0.00 0.00 45 1019.3
20210802203014 79 10 2.0 3.0 0.00 0.00 0.00 51 1019.5
20210802202509 78 323 1.0 10.0 0.00 0.00 0.00 52 1019.5
20210802202010 79 135 5.0 10.0 0.00 0.00 0.00 46 1019.6
20210802201524 80 88 1.0 7.0 0.00 0.00 0.00 48 1019.6
20210802201010 80 0 2.0 5.0 0.00 0.00 0.00 48 1019.7
20210802200509 79 115 1.0 5.0 0.00 0.00 0.00 50 1019.8
20210802200010 79 107 1.0 5.0 0.00 0.00 0.00 50 1019.8
20210802195509 79 61 2.0 5.0 0.00 0.00 0.00 48 1019.8
20210802195010 78 58 2.0 6.0 0.00 0.00 0.00 49 1019.9
20210802194525 78 99 1.0 6.0 0.00 0.00 0.00 51 1020.0
20210802194010 78 48 2.0 9.0 0.00 0.00 0.00 49 1020.0
20210802193509 77 90 2.0 9.0 0.00 0.00 0.00 49 1020.1
20210802193011 79 50 3.0 9.0 0.00 0.00 0.00 49 1020.2
20210802192509 79 11 2.0 6.0 0.00 0.00 0.00 46 1020.2
20210802192010 79 355 1.0 6.0 0.00 0.00 0.00 49 1020.2
20210802191511 78 266 2.0 6.0 0.00 0.00 0.00 50 1020.4
20210802191009 78 254 1.0 3.0 0.00 0.00 0.00 50 1020.4
20210802190508 78 246 1.0 3.0 0.00 0.00 0.00 51 1020.5
20210802190009 78 12 1.0 3.0 0.00 0.00 0.00 48 1020.4
20210802185508 78 205 1.0 3.0 0.00 0.00 0.00 52 1020.5
20210802185009 78 132 0.0 3.0 0.00 0.00 0.00 51 1020.6
20210802184509 78 91 1.0 5.0 0.00 0.00 0.00 49 1020.6
20210802184009 78 152 1.0 5.0 0.00 0.00 0.00 49 1020.6
20210802183508 78 70 3.0 5.0 0.00 0.00 0.00 53 1020.6
20210802183010 77 152 1.0 6.0 0.00 0.00 0.00 52 1020.8
20210802182508 77 159 2.0 6.0 0.00 0.00 0.00 51 1020.9
20210802182009 78 355 2.0 5.0 0.00 0.00 0.00 52 1020.8
20210802181510 78 63 1.0 3.0 0.00 0.00 0.00 49 1020.8
20210802181009 78 263 2.0 3.0 0.00 0.00 0.00 49 1020.9
20210802180508 77 334 0.0 6.0 0.00 0.00 0.00 53 1020.9
20210802180019 77 25 2.0 6.0 0.00 0.00 0.00 52 1020.9
20210802175508 77 346 3.0 6.0 0.00 0.00 0.00 50 1020.9
20210802175009 78 7 3.0 6.0 0.00 0.00 0.00 52 1020.8
20210802174518 77 269 1.0 8.0 0.00 0.00 0.00 50 1020.8
20210802174009 77 47 3.0 8.0 0.00 0.00 0.00 50 1020.9
20210802173508 77 144 1.0 3.0 0.00 0.00 0.00 58 1020.9
20210802173011 77 168 1.0 6.0 0.00 0.00 0.00 54 1020.9
20210802172508 77 146 2.0 7.0 0.00 0.00 0.00 51 1021.1
20210802172009 77 61 3.0 7.0 0.00 0.00 0.00 51 1021.3
20210802171510 77 131 1.0 3.0 0.00 0.00 0.00 50 1021.3
20210802171009 77 298 1.0 3.0 0.00 0.00 0.00 50 1021.4
20210802170508 76 355 1.0 3.0 0.00 0.00 0.00 49 1021.5
20210802170011 76 44 2.0 5.0 0.00 0.00 0.00 49 1021.4
20210802165508 76 96 2.0 5.0 0.00 0.00 0.00 51 1021.4
20210802165009 76 53 3.0 5.0 0.00 0.00 0.00 52 1021.4
20210802164510 76 74 1.0 3.0 0.00 0.00 0.00 54 1021.4
20210802164009 76 296 1.0 3.0 0.00 0.00 0.00 54 1021.4
20210802163509 75 154 1.0 3.0 0.00 0.00 0.00 59 1021.5
20210802163014 76 56 2.0 3.0 0.00 0.00 0.00 56 1021.5
20210802162510 75 25 1.0 3.0 0.00 0.00 0.00 56 1021.4
20210802162009 75 329 2.0 3.0 0.00 0.00 0.00 55 1021.6
20210802161510 75 66 2.0 3.0 0.00 0.00 0.00 60 1021.6
20210802161009 74 272 1.0 2.0 0.00 0.00 0.00 58 1021.6
20210802160509 74 222 1.0 2.0 0.00 0.00 0.00 59 1021.7
20210802160010 74 156 1.0 2.0 0.00 0.00 0.00 61 1021.7
20210802155509 74 140 1.0 3.0 0.00 0.00 0.00 65 1021.8
20210802155009 73 225 1.0 3.0 0.00 0.00 0.00 65 1021.7
20210802154510 73 160 2.0 3.0 0.00 0.00 0.00 67 1021.8
20210802154011 72 150 1.0 3.0 0.00 0.00 0.00 67 1021.8
20210802153509 72 185 1.0 2.0 0.00 0.00 0.00 68 1021.8
20210802153011 71 96 0.0 2.0 0.00 0.00 0.00 69 1021.9
20210802152509 71 129 0.0 3.0 0.00 0.00 0.00 72 1021.7
20210802152010 70 129 1.0 3.0 0.00 0.00 0.00 70 1021.9
20210802151510 70 152 2.0 3.0 0.00 0.00 0.00 72 1021.9
20210802151010 70 132 1.0 3.0 0.00 0.00 0.00 71 1021.9
20210802150509 69 118 1.0 3.0 0.00 0.00 0.00 71 1021.9
20210802150010 69 79 1.0 3.0 0.00 0.00 0.00 73 1021.8
20210802145509 69 152 1.0 3.0 0.00 0.00 0.00 73 1021.9
20210802145010 68 264 1.0 3.0 0.00 0.00 0.00 77 1021.9
20210802144510 68 101 1.0 3.0 0.00 0.00 0.00 76 1022.0
20210802144010 67 355 1.0 3.0 0.00 0.00 0.00 76 1022.0
20210802143509 67 323 1.0 3.0 0.00 0.00 0.00 78 1022.1
20210802143011 67 71 2.0 3.0 0.00 0.00 0.00 79 1022.1
20210802142509 66 37 1.0 2.0 0.00 0.00 0.00 80 1022.3
20210802142011 66 33 1.0 2.0 0.00 0.00 0.00 81 1022.3
20210802141513 66 5 0.0 2.0 0.00 0.00 0.00 81 1022.4
20210802141011 65 19 0.0 2.0 0.00 0.00 0.00 81 1022.5
20210802140509 65 43 1.0 2.0 0.00 0.00 0.00 81 1022.6
20210802140009 65 10 1.0 2.0 0.00 0.00 0.00 81 1022.4
20210802135508 65 10 1.0 2.0 0.00 0.00 0.00 83 1022.4
20210802135009 64 351 1.0 2.0 0.00 0.00 0.00 83 1022.3
20210802134509 64 48 1.0 3.0 0.00 0.00 0.00 84 1022.3
20210802134009 64 44 2.0 3.0 0.00 0.00 0.00 84 1022.2
20210802133509 64 40 1.0 3.0 0.00 0.00 0.00 85 1022.1
20210802133010 63 349 1.0 3.0 0.00 0.00 0.00 88 1022.2
20210802132508 63 331 2.0 3.0 0.00 0.00 0.00 87 1022.3
20210802132009 62 322 2.0 5.0 0.00 0.00 0.00 89 1022.3
20210802131510 62 349 3.0 5.0 0.00 0.00 0.00 91 1022.3
20210802131009 62 350 1.0 5.0 0.00 0.00 0.00 92 1022.4
20210802130508 62 345 2.0 3.0 0.00 0.00 0.00 92 1022.3
20210802130009 61 349 2.0 3.0 0.00 0.00 0.00 92 1022.2
20210802125508 61 341 1.0 3.0 0.00 0.00 0.00 93 1022.3
20210802125009 61 338 1.0 3.0 0.00 0.00 0.00 93 1022.2
20210802124509 61 1 1.0 3.0 0.00 0.00 0.00 94 1022.3
20210802124009 60 34 1.0 5.0 0.00 0.00 0.00 94 1022.2
20210802123509 60 334 2.0 5.0 0.00 0.00 0.00 94 1022.2
20210802123010 60 345 3.0 5.0 0.00 0.00 0.00 94 1022.2
20210802122508 60 9 1.0 3.0 0.00 0.00 0.00 94 1022.2
20210802122009 60 5 2.0 3.0 0.00 0.00 0.00 94 1022.2
20210802121510 60 341 2.0 3.0 0.00 0.00 0.00 94 1022.2
20210802121009 60 355 2.0 3.0 0.00 0.00 0.00 93 1022.2
20210802120508 59 3 1.0 3.0 0.00 0.00 0.00 93 1022.2
20210802120010 59 340 2.0 3.0 0.00 0.00 0.00 93 1022.1
20210802115508 59 346 1.0 3.0 0.00 0.00 0.00 93 1022.1
20210802115009 59 355 1.0 3.0 0.00 0.00 0.00 92 1022.0
20210802114513 59 355 0.0 1.0 0.00 0.00 0.00 92 1022.0
20210802114009 59 355 0.0 1.0 0.00 0.00 0.00 92 1022.0
20210802113509 60 355 0.0 1.0 0.00 0.00 0.00 92 1022.0
20210802113010 60 355 0.0 1.0 0.00 0.00 0.00 92 1022.0
20210802112508 60 355 0.0 0.0 0.00 0.00 0.00 92 1021.9
20210802112010 60 355 0.0 1.0 0.00 0.00 0.00 92 1021.8
20210802111519 60 355 0.0 1.0 0.00 0.00 0.00 92 1021.8
20210802111009 60 355 0.0 3.0 0.00 0.00 0.00 92 1021.7
20210802110508 60 355 1.0 3.0 0.00 0.00 0.00 92 1021.6
20210802110010 60 5 0.0 2.0 0.00 0.00 0.00 92 1021.6
20210802105508 60 5 1.0 2.0 0.00 0.00 0.00 92 1021.6
20210802105011 60 5 1.0 2.0 0.00 0.00 0.00 92 1021.6
20210802104510 60 5 1.0 3.0 0.00 0.00 0.00 92 1021.5
20210802104010 60 17 2.0 3.0 0.00 0.00 0.00 92 1021.5
20210802103508 60 355 1.0 3.0 0.00 0.00 0.00 91 1021.5
20210802103011 60 355 1.0 3.0 0.00 0.00 0.00 91 1021.5
20210802102509 60 344 1.0 3.0 0.00 0.00 0.00 91 1021.5
20210802102010 61 349 2.0 3.0 0.00 0.00 0.00 91 1021.5
20210802101511 61 13 2.0 3.0 0.00 0.00 0.00 91 1021.5
20210802101010 61 10 2.0 3.0 0.00 0.00 0.00 91 1021.5
20210802100510 61 19 1.0 3.0 0.00 0.00 0.00 91 1021.5
20210802100010 61 350 1.0 3.0 0.00 0.00 0.00 91 1021.4
20210802095509 61 341 1.0 2.0 0.00 0.00 0.00 90 1021.4
20210802095010 61 346 0.0 3.0 0.00 0.00 0.00 90 1021.4
20210802094510 61 346 0.0 3.0 0.00 0.00 0.00 90 1021.4
20210802094010 61 346 2.0 3.0 0.00 0.00 0.00 90 1021.4
20210802093510 61 337 1.0 2.0 0.00 0.00 0.00 90 1021.4
20210802093014 61 334 0.0 3.0 0.00 0.00 0.00 90 1021.4
20210802092509 62 342 1.0 3.0 0.00 0.00 0.00 90 1021.4
20210802092010 62 345 2.0 3.0 0.00 0.00 0.00 90 1021.3
20210802091519 62 350 2.0 3.0 0.00 0.00 0.00 90 1021.2
20210802091010 62 346 1.0 3.0 0.00 0.00 0.00 89 1021.3
20210802090509 62 355 1.0 2.0 0.00 0.00 0.00 89 1021.3
20210802090009 62 350 1.0 3.0 0.00 0.00 0.00 89 1021.2
20210802085509 62 353 1.0 3.0 0.00 0.00 0.00 89 1021.3